User: anonymous   Login
Location: Caltech
(34.1382°N, 118.1253°W)
Time: 06:50:18
(UTC-07:00)
Language:

Cosmos-2242 - Orbit

View from above orbital plane
View from above orbital plane
View from above satellite
View from above satellite

Ground track
Ground track

The orbit data is extracted from the following two-line orbital elements,

1 22626U 93024A   14294.81506123  .00003431  00000-0  38695-3 0  2394
2 22626 082.5244 234.9935 0021473 096.2428 264.1236 14.86158720162070
Epoch (UTC): 21 October 2014 19:33:41
Eccentricity: 0.0021473
inclination: 82.5244°
perigee height: 595 km
apogee height: 625 km
right ascension of ascending node: 234.9935°
argument of perigee: 96.2428°
revolutions per day: 14.86158720
mean anomaly at epoch: 264.1236°
orbit number at epoch: 16207

The dashed part of the orbit path shows where the satellite is in the earth's shadow,  

DLR